Date,TemperatureHighF,TemperatureAvgF,TemperatureLowF,DewpointHighF,DewpointAvgF,DewpointLowF,HumidityHigh,HumidityAvg,HumidityLow,PressureMaxIn,PressureMinIn,WindSpeedMaxMPH,WindSpeedAvgMPH,GustSpeedMaxMPH,PrecipitationSumIn
2014-1-1,47.6,35.9,27.1,32.1,24.4,17.1,84,64,45,30.41,30.14,6,1,14,0.00
2014-1-2,37.4,33.7,30.6,32.7,30.6,28.3,95,88,82,30.12,29.62,4,1,9,0.04
2014-1-3,30.4,21.3,15.3,29.1,11.1,1.8,95,67,41,30.49,29.63,11,2,23,0.00
2014-1-4,16.4,14.2,14.0,8.0,7.1,4.9,75,73,60,30.53,30.26,1,0,5,0.00
2014-1-5,39.4,28.4,14.0,38.3,24.7,7.2,96,86,74,30.26,29.72,7,1,9,0.09
2014-1-6,43.9,34.1,9.1,42.8,23.9,-9.0,97,68,39,30.07,29.49,23,5,28,0.00
2014-1-7,8.7,4.7,4.3,-10.0,-12.0,-13.0,44,43,38,30.46,30.08,10,7,25,0.00
2014-1-8,4.3,4.3,4.3,-12.0,-12.0,-12.0,44,44,44,30.58,30.45,7,7,0,0.00
2014-1-9,4.3,4.3,4.3,-12.0,-12.0,-12.0,44,44,44,30.63,30.46,7,7,0,0.00
2014-1-10,38.4,24.4,4.3,37.0,17.4,-12.0,96,76,44,30.52,30.14,7,3,4,0.29
2014-1-11,53.3,44.8,36.3,51.3,43.5,35.2,98,95,76,30.13,29.41,10,2,20,0.69
2014-1-12,52.7,46.5,37.2,45.4,33.8,29.3,79,62,47,30.10,29.54,12,2,24,0.00
2014-1-13,59.2,46.0,32.3,39.7,34.8,29.4,89,67,47,30.09,29.86,12,3,21,0.00
2014-1-14,52.5,46.6,38.7,46.1,43.6,37.6,96,90,59,29.90,29.69,5,2,18,0.31
2014-1-15,48.6,40.6,37.4,44.1,36.9,29.7,100,87,61,29.97,29.86,10,2,16,0.01
2014-1-16,39.6,34.3,30.5,31.1,23.4,17.7,87,66,43,30.02,29.88,8,2,13,0.00
2014-1-17,48.4,38.2,29.9,31.6,28.4,25.3,83,69,47,29.96,29.80,5,2,12,0.00
2014-1-18,36.9,29.0,22.7,31.9,17.1,9.3,85,62,43,29.99,29.78,15,6,25,0.00
2014-1-19,48.4,34.9,22.9,26.3,19.2,9.9,69,53,41,29.97,29.75,12,4,27,0.00
2014-1-20,55.4,43.9,37.2,29.5,26.6,24.7,62,52,35,29.86,29.64,10,4,17,0.00
2014-1-21,38.0,28.1,13.8,28.1,22.7,10.1,92,81,66,29.88,29.72,8,3,23,0.00
2014-1-22,13.7,10.3,10.0,7.5,-0.6,-1.0,76,60,55,30.10,29.88,11,5,18,0.00
2014-1-23,10.0,10.0,10.0,-1.0,-1.0,-1.0,59,59,59,30.41,30.10,5,5,0,0.00
2014-1-24,10.0,10.0,10.0,-1.0,-1.0,-1.0,59,59,59,30.51,30.08,5,5,0,0.00
2014-1-25,10.0,10.0,10.0,-1.0,-1.0,-1.0,59,59,59,30.06,29.45,5,5,0,0.00
2014-1-26,10.0,10.0,10.0,-1.0,-1.0,-1.0,59,59,59,29.90,29.63,5,5,0,0.00
2014-1-27,50.2,24.8,10.0,32.2,9.2,-1.0,64,52,31,30.18,29.63,17,5,25,0.00
2014-1-28,19.8,16.4,16.0,2.4,-4.2,-5.0,47,39,38,30.44,30.19,11,3,18,0.00
2014-1-29,16.0,16.0,16.0,-5.0,-5.0,-5.0,38,38,38,30.34,30.20,3,3,0,0.00
2014-1-30,16.0,16.0,16.0,-5.0,-5.0,-5.0,38,38,38,30.44,30.17,3,3,0,0.00
2014-1-31,16.0,16.0,16.0,-5.0,-5.0,-5.0,38,38,38,30.22,30.09,3,3,0,0.00
2014-2-1,53.0,35.2,16.0,32.1,14.6,-5.0,67,43,27,30.28,29.99,10,2,13,0.00
2014-2-2,62.4,49.2,37.3,36.2,31.4,26.4,67,51,36,30.04,29.91,3,1,7,0.00
2014-2-3,48.3,37.8,32.0,39.7,35.1,28.0,96,91,71,30.33,30.00,10,3,14,0.39
2014-2-4,37.6,32.2,27.7,28.5,23.7,20.9,92,71,58,30.48,30.17,3,1,11,0.01
2014-2-5,40.7,33.6,30.3,35.8,30.3,21.3,95,88,60,30.15,29.69,14,2,25,0.19
2014-2-6,34.5,30.6,27.0,20.7,17.7,15.6,67,59,46,30.34,30.10,11,3,24,0.00
2014-2-7,41.5,34.2,29.4,22.9,20.1,17.5,67,57,45,30.35,30.24,5,1,11,0.00
2014-2-8,33.5,29.9,24.8,20.9,16.3,11.2,75,57,42,30.34,30.19,4,1,10,0.00
2014-2-9,33.2,29.9,23.9,28.0,22.5,17.6,88,74,61,30.20,29.98,5,1,15,0.00
2014-2-10,31.1,28.4,23.0,26.9,16.1,10.8,85,60,48,30.34,30.04,10,3,15,0.00
2014-2-11,22.4,20.4,20.2,10.0,9.3,9.2,64,62,58,30.47,30.34,4,2,11,0.00
2014-2-12,28.0,23.1,17.4,21.8,12.7,6.6,91,65,45,30.52,30.15,10,3,12,0.00
2014-2-13,35.8,31.0,24.0,34.7,29.6,21.7,96,95,91,30.12,29.30,13,6,21,0.54
2014-2-14,51.5,40.9,34.0,32.1,27.2,22.4,93,59,40,29.72,29.35,17,3,38,0.18
2014-2-15,40.3,34.7,28.9,31.8,25.7,14.7,92,70,55,29.93,29.61,12,4,23,0.09
2014-2-16,38.3,30.6,25.3,24.0,16.0,11.0,79,55,43,30.19,29.94,10,2,20,0.00
2014-2-17,29.2,26.0,25.6,23.2,15.6,14.7,78,65,63,30.45,30.21,3,3,14,0.00
2014-2-18,57.1,39.0,25.6,31.4,24.3,14.7,91,58,30,30.24,30.00,11,3,17,0.05
2014-2-19,63.3,47.7,36.3,49.1,34.5,26.0,92,62,30,30.13,29.69,12,3,27,0.11
2014-2-20,55.7,46.1,36.7,36.5,30.4,22.8,83,57,28,30.24,29.94,6,1,18,0.00
2014-2-21,68.0,48.1,39.9,60.1,43.1,36.7,94,83,68,29.95,29.64,13,1,19,0.09
2014-2-22,62.6,49.9,37.1,38.5,26.4,22.2,94,44,23,30.10,29.96,14,2,20,0.00
2014-2-23,61.5,51.4,44.5,37.0,30.7,28.4,72,46,30,30.01,29.85,9,3,18,0.00
2014-2-24,44.1,39.1,31.6,36.1,17.6,8.5,81,44,24,30.14,29.91,15,5,26,0.00
2014-2-25,36.6,31.6,28.2,28.0,19.5,12.6,90,62,43,30.13,29.99,6,1,13,0.07
2014-2-26,34.3,29.7,24.8,27.1,15.8,6.4,90,57,36,30.01,29.85,9,2,16,0.05
2014-2-27,23.3,20.1,19.6,11.8,10.9,8.6,70,67,54,30.13,29.68,2,2,3,0.00
2014-2-28,29.7,22.0,12.7,11.0,2.1,-8.0,68,44,24,30.44,30.15,8,2,10,0.00
2014-3-1,22.1,19.7,19.3,11.8,10.7,6.1,71,68,50,30.39,30.18,2,0,6,0.00
2014-3-2,53.6,35.1,19.3,37.6,26.3,11.1,93,72,46,30.18,29.96,6,1,13,0.25
2014-3-3,35.3,22.4,15.0,33.4,17.5,5.4,93,82,60,30.36,29.99,12,4,16,0.19
2014-3-4,15.5,13.6,13.2,5.2,3.6,3.3,65,64,61,30.42,30.25,6,3,9,0.00
2014-3-5,13.2,13.2,13.2,3.3,3.3,3.3,64,64,64,30.38,30.17,3,3,0,0.00
2014-3-6,34.2,24.9,13.2,22.4,13.5,3.3,72,62,55,30.57,30.38,8,3,15,0.00
2014-3-7,44.4,35.8,28.9,31.3,26.7,22.0,78,70,59,30.36,29.93,11,4,14,0.00
2014-3-8,64.6,48.6,31.1,38.5,32.3,24.7,79,56,35,29.97,29.86,7,1,14,0.00
2014-3-9,53.4,46.1,41.4,36.2,25.9,17.0,68,47,28,30.10,29.89,12,3,18,0.00
2014-3-10,59.8,47.5,38.9,33.4,28.2,20.7,65,48,32,30.01,29.66,10,2,21,0.00
2014-3-11,71.8,57.7,48.6,41.2,36.0,30.8,55,45,33,29.71,29.62,4,1,8,0.00
2014-3-12,66.3,52.9,33.9,57.5,41.3,20.2,84,65,50,29.63,29.04,15,4,41,0.05
2014-3-13,32.9,26.1,25.3,19.3,11.1,10.1,58,53,52,30.18,29.47,22,7,28,0.00
2014-3-14,57.5,40.8,25.3,23.6,15.8,10.1,52,38,24,30.23,29.88,20,7,25,0.00
2014-3-15,65.3,56.0,48.8,37.8,26.6,21.3,45,33,19,30.03,29.81,10,4,21,0.00
2014-3-16,50.0,40.3,27.9,29.7,25.5,19.6,94,58,36,30.17,30.03,8,3,19,0.00
2014-3-17,29.7,26.8,23.7,26.5,23.7,22.2,95,88,77,30.10,29.98,6,3,12,0.00
2014-3-18,41.7,35.4,29.0,28.4,24.1,19.3,79,63,55,30.23,30.06,6,2,13,0.16
2014-3-19,41.5,38.1,34.8,39.5,34.2,27.3,96,86,67,30.22,29.86,7,2,10,0.29
2014-3-20,57.5,48.4,40.4,43.6,32.4,22.0,100,61,26,30.00,29.81,13,4,29,0.00
2014-3-21,53.7,47.1,41.5,39.1,33.3,25.7,81,59,46,30.08,30.00,4,2,12,0.00
2014-3-22,70.5,53.8,40.5,37.6,34.9,27.2,87,54,20,30.01,29.82,7,3,15,0.00
2014-3-23,52.7,42.7,33.5,31.2,24.7,10.0,59,49,36,30.17,29.99,11,4,19,0.00
2014-3-24,33.5,24.0,22.6,10.5,8.7,8.4,54,52,38,30.32,30.14,11,4,17,0.00
2014-3-25,33.4,28.6,22.6,31.8,22.2,8.4,95,79,54,30.15,29.85,4,3,10,0.05
2014-3-26,35.9,30.9,27.5,28.7,15.8,7.4,94,57,31,30.32,29.89,16,4,33,0.00
2014-3-27,51.7,37.5,23.5,27.4,17.5,10.6,71,46,29,30.44,30.20,11,2,20,0.02
2014-3-28,66.0,54.9,43.8,54.1,44.1,27.5,88,68,52,30.19,29.99,19,5,26,0.03
2014-3-29,62.3,57.3,53.2,60.2,55.1,52.3,98,93,74,30.08,29.54,10,2,15,0.94
2014-3-30,52.5,42.0,33.7,51.3,39.8,32.3,96,92,75,29.79,29.48,14,6,26,1.22
2014-3-31,65.2,52.0,39.9,35.7,32.2,30.2,74,50,28,30.08,29.80,13,5,27,0.00
2014-4-1,67.9,54.3,42.2,41.4,34.4,29.0,69,48,33,30.16,29.95,8,1,11,0.00
2014-4-2,66.1,53.4,43.1,47.4,43.1,39.4,87,70,49,30.10,29.98,4,1,8,0.00
2014-4-3,67.2,59.2,53.5,49.7,46.2,40.3,78,63,47,30.09,29.93,7,2,11,0.00
2014-4-4,60.1,53.1,48.6,51.0,45.5,40.5,90,76,59,29.93,29.68,10,3,16,0.02
2014-4-5,56.1,50.7,45.2,48.6,36.2,28.4,96,61,40,30.14,29.69,11,4,25,0.00
2014-4-6,60.5,48.5,35.3,27.8,24.4,16.7,70,42,18,30.25,30.13,6,2,13,0.00
2014-4-7,50.9,46.0,40.2,50.0,40.5,26.4,97,82,46,30.16,29.64,9,2,15,0.49
2014-4-8,64.0,55.8,48.6,54.1,45.6,38.6,100,73,44,29.68,29.47,13,4,22,0.02
2014-4-9,64.7,56.1,45.7,39.1,34.6,28.2,67,47,27,30.03,29.67,9,2,21,0.00
2014-4-10,71.3,59.4,42.4,39.0,33.3,28.8,63,39,26,30.21,30.01,14,3,23,0.00
2014-4-11,80.9,67.9,61.4,54.9,43.4,36.3,77,43,25,30.05,29.88,10,4,20,0.00
2014-4-12,76.8,66.1,57.6,54.3,44.7,33.3,83,52,23,30.25,30.02,7,2,13,0.00
2014-4-13,83.7,68.8,52.5,57.2,53.9,49.3,91,62,38,30.13,29.96,13,3,23,0.00
2014-4-14,77.1,71.0,63.7,59.5,56.2,54.1,75,60,47,29.98,29.79,15,5,30,0.00
2014-4-15,69.6,55.4,35.1,65.2,52.0,27.9,97,89,71,30.01,29.53,17,6,33,3.07
2014-4-16,49.4,39.9,30.6,26.5,18.5,13.3,67,43,28,30.52,30.02,11,4,23,0.00
2014-4-17,54.2,44.4,33.6,34.8,30.7,24.2,81,60,46,30.64,30.53,8,2,14,0.00
2014-4-18,55.4,45.2,36.9,38.6,34.3,30.6,81,66,49,30.57,30.27,4,1,12,0.00
2014-4-19,69.6,56.0,43.2,42.2,36.3,24.3,89,54,22,30.29,30.20,6,1,13,0.00
2014-4-20,62.3,54.3,47.6,39.2,36.9,32.7,68,53,39,30.42,30.29,7,2,15,0.00
2014-4-21,71.4,55.5,39.5,40.9,34.4,27.1,72,48,23,30.29,29.88,7,1,14,0.00
2014-4-22,74.4,61.8,51.4,58.3,50.2,40.9,85,67,40,29.87,29.57,6,2,14,0.03
2014-4-23,59.7,53.5,48.2,51.3,36.9,33.2,74,54,46,29.97,29.64,13,5,23,0.00
2014-4-24,63.8,52.7,43.0,32.4,26.7,21.8,57,39,21,30.12,29.97,8,2,17,0.00
2014-4-25,68.5,55.5,47.3,51.6,40.8,30.2,95,61,40,30.01,29.71,12,2,21,0.41
2014-4-26,75.4,62.2,49.8,51.8,46.4,40.4,96,59,36,29.88,29.72,11,3,26,0.03
2014-4-27,68.7,58.0,47.7,47.3,36.5,33.4,60,45,31,30.08,29.87,7,2,13,0.00
2014-4-28,61.7,53.6,48.6,49.9,42.3,36.5,94,67,48,30.11,29.94,7,2,14,0.18
2014-4-29,48.6,47.8,46.4,47.7,46.3,43.1,97,95,88,30.18,30.05,9,3,16,1.16
2014-4-30,65.5,55.6,48.7,65.4,55.0,47.8,100,98,97,30.16,29.82,8,3,17,2.81
2014-5-1,78.9,68.1,58.9,65.0,57.7,44.1,99,73,46,29.84,29.67,7,2,18,0.22
2014-5-2,69.6,62.3,54.0,43.6,40.4,37.4,61,46,34,29.87,29.76,7,2,17,0.00
2014-5-3,73.1,64.1,53.3,46.3,43.4,40.3,73,49,32,29.87,29.71,6,1,17,0.00
2014-5-4,77.6,65.0,55.4,47.5,42.1,37.8,70,45,28,29.91,29.68,19,3,22,0.00
2014-5-5,64.1,55.9,47.7,49.4,37.6,31.0,94,53,34,30.04,29.88,8,2,17,0.49
2014-5-6,74.3,60.4,50.5,52.2,47.8,40.9,95,68,31,30.02,29.89,6,1,11,0.00
2014-5-7,63.6,58.1,52.6,54.9,48.6,40.7,91,72,46,30.24,30.03,5,1,14,0.17
2014-5-8,89.8,70.2,55.9,65.8,58.6,52.5,94,71,34,30.13,29.98,4,1,11,0.00
2014-5-9,76.2,67.3,60.3,64.8,61.5,57.9,93,82,67,30.10,29.94,7,2,10,0.00
2014-5-10,78.1,70.8,66.5,65.4,63.4,61.5,89,78,61,29.99,29.89,13,3,21,0.08
2014-5-11,82.3,71.8,62.4,62.8,53.9,46.6,86,57,31,30.12,29.94,6,1,14,0.00
2014-5-12,88.1,73.6,60.5,70.6,63.1,54.1,96,72,42,30.11,30.02,8,1,14,0.11
2014-5-13,91.8,77.4,66.4,70.5,67.0,60.2,100,74,45,30.16,30.02,9,1,16,0.00
2014-5-14,65.8,62.6,58.8,63.9,59.9,56.6,97,91,80,30.21,30.11,4,1,11,0.00
2014-5-15,81.5,71.5,64.6,69.9,66.7,63.7,98,86,64,30.12,29.89,8,2,18,0.37
2014-5-16,71.8,65.5,53.9,67.7,57.8,49.3,97,78,54,29.92,29.72,7,2,25,0.90
2014-5-17,67.0,59.7,51.7,48.4,43.0,39.6,75,56,38,30.14,29.93,6,2,14,0.00
2014-5-18,67.7,59.3,51.4,42.4,39.8,36.0,69,50,34,30.23,30.14,7,2,13,0.00
2014-5-19,73.2,62.4,51.2,42.3,39.1,35.0,66,44,26,30.28,30.15,5,2,13,0.00
2014-5-20,79.0,68.2,54.9,52.6,45.3,40.5,67,46,28,30.19,29.99,6,1,9,0.00
2014-5-21,79.0,68.5,59.9,66.2,59.6,52.9,96,75,54,29.99,29.87,5,1,8,0.14
2014-5-22,86.4,75.4,63.7,66.6,62.4,53.3,97,68,43,29.87,29.74,10,2,21,0.00
2014-5-23,77.8,68.5,58.6,52.5,49.9,44.8,71,52,37,30.01,29.87,12,3,20,0.00
2014-5-24,76.0,65.9,54.9,53.9,50.4,45.2,75,58,45,30.10,29.99,8,2,14,0.00
2014-5-25,81.6,70.9,57.5,56.0,52.0,48.7,83,54,32,30.15,30.07,8,1,11,0.00
2014-5-26,86.3,75.0,61.5,63.4,58.5,52.6,88,59,35,30.11,29.95,6,2,16,0.00
2014-5-27,89.0,76.6,66.9,70.9,65.3,61.3,98,71,45,29.96,29.82,6,2,17,1.06
2014-5-28,85.7,74.4,60.6,69.9,66.3,58.2,98,78,55,30.06,29.83,4,2,17,0.01
2014-5-29,59.4,56.8,55.2,57.6,55.3,53.7,97,95,92,30.17,30.06,4,1,15,0.43
2014-5-30,74.7,63.4,55.6,58.5,56.8,54.7,98,81,53,30.14,30.05,4,1,9,0.02
2014-5-31,80.6,70.1,59.8,57.4,51.3,46.0,82,55,31,30.24,30.08,7,2,16,0.00
2014-6-1,77.2,67.0,54.0,56.0,53.5,50.8,95,65,41,30.35,30.23,5,2,10,0.00
2014-6-2,81.5,69.6,56.2,61.5,55.2,48.7,82,62,46,30.27,30.04,7,2,14,0.00
2014-6-3,88.6,75.9,65.4,70.2,64.6,59.4,82,69,50,30.05,29.83,9,2,19,0.02
2014-6-4,87.8,77.4,66.8,67.4,63.3,58.2,96,65,38,29.85,29.69,4,1,14,0.38
2014-6-5,79.2,70.7,62.7,67.7,60.8,53.5,97,74,44,29.85,29.57,6,2,14,0.06
2014-6-6,79.8,70.1,59.8,56.0,52.7,46.9,75,55,41,29.97,29.83,7,2,14,0.00
2014-6-7,85.2,73.0,58.3,60.6,56.9,54.8,91,60,37,30.03,29.92,5,1,7,0.00
2014-6-8,85.0,74.0,61.5,66.7,62.8,58.1,92,70,50,29.96,29.81,7,2,17,0.12
2014-6-9,85.8,75.9,67.2,71.7,69.2,66.5,99,81,57,29.87,29.82,5,1,11,0.30
2014-6-10,88.0,78.6,74.0,73.3,71.6,69.8,93,80,57,29.91,29.83,5,1,8,0.00
2014-6-11,87.3,76.0,68.6,74.0,70.6,67.1,97,85,63,29.99,29.88,6,1,16,0.78
2014-6-12,79.9,71.9,68.0,73.1,70.0,67.1,98,94,80,29.97,29.82,4,1,14,0.13
2014-6-13,84.0,74.2,69.8,72.6,69.5,63.6,96,86,65,29.84,29.73,5,1,21,0.31
2014-6-14,76.5,70.2,64.8,64.1,57.1,53.1,84,65,45,30.09,29.84,8,2,17,0.00
2014-6-15,83.0,70.7,56.2,61.7,56.0,51.2,85,62,45,30.17,30.06,5,1,13,0.00
2014-6-16,93.4,79.7,64.1,68.9,65.6,62.1,95,65,38,30.12,30.02,4,1,11,0.00
2014-6-17,94.1,84.0,71.3,73.4,70.0,66.2,85,64,45,30.09,29.93,7,2,14,0.00
2014-6-18,94.2,86.5,77.5,74.2,71.5,67.5,77,62,51,30.00,29.93,9,2,16,0.00
2014-6-19,84.3,78.8,71.9,73.7,68.9,66.2,86,72,61,30.01,29.91,5,1,16,0.00
2014-6-20,85.2,75.3,66.5,67.5,59.5,52.6,93,61,37,30.04,29.91,6,1,9,0.00
2014-6-21,73.8,69.8,66.9,64.6,61.3,57.3,90,75,62,29.92,29.85,3,1,7,0.01
2014-6-22,82.9,72.9,64.8,65.2,62.7,59.1,95,72,49,29.99,29.87,5,1,10,0.01
2014-6-23,83.3,74.3,63.8,66.0,62.0,58.4,95,68,43,30.12,30.00,6,2,14,0.00
2014-6-24,86.4,76.5,66.5,71.3,66.1,61.0,86,71,57,30.13,29.97,10,2,15,0.00
2014-6-25,88.4,79.5,71.7,75.0,72.2,70.1,95,80,60,30.00,29.79,5,1,13,0.33
2014-6-26,87.6,79.2,70.9,72.6,67.9,64.2,96,71,47,29.96,29.83,8,2,16,0.01
2014-6-27,85.4,78.1,70.4,71.2,67.3,64.2,81,70,58,30.17,29.96,8,2,16,0.00
2014-6-28,85.0,75.9,64.6,64.6,61.6,57.1,87,63,43,30.26,30.17,9,1,10,0.00
2014-6-29,85.5,76.9,66.9,61.9,59.0,50.4,78,56,32,30.23,30.10,7,2,12,0.00
2014-6-30,88.4,79.0,69.6,70.6,66.6,59.2,83,67,54,30.10,29.92,9,2,15,0.00
2014-7-1,92.6,82.9,72.3,75.2,71.8,68.2,88,70,54,29.95,29.81,11,2,16,0.00
2014-7-2,95.9,84.6,76.3,77.1,73.8,70.6,83,71,52,29.92,29.81,9,2,13,0.01
2014-7-3,90.0,77.6,70.2,76.1,71.7,68.6,95,83,58,29.95,29.87,11,1,21,0.38
2014-7-4,79.4,73.7,68.3,71.6,60.7,51.2,95,67,41,30.15,29.94,8,3,20,0.01
2014-7-5,84.7,72.7,61.0,54.9,52.1,49.8,69,50,34,30.25,30.15,5,2,17,0.00
2014-7-6,86.5,76.0,63.6,63.6,58.4,53.7,74,56,42,30.15,29.93,11,2,15,0.00
2014-7-7,91.2,82.2,71.6,67.1,65.0,62.4,74,57,44,29.93,29.78,10,4,22,0.00
2014-7-8,93.4,81.8,69.3,70.7,67.5,64.1,94,64,44,29.86,29.69,17,4,28,0.47
2014-7-9,87.2,75.1,70.3,74.4,69.7,67.0,96,85,57,29.96,29.81,5,1,15,0.07
2014-7-10,87.2,74.7,65.2,73.0,68.9,62.8,97,84,55,30.10,29.94,4,1,11,0.69
2014-7-11,87.0,76.0,65.3,69.6,67.3,64.4,98,77,53,30.19,30.10,3,0,8,0.00
2014-7-12,88.7,79.5,69.4,73.2,70.5,67.9,96,75,56,30.19,30.08,7,1,14,0.00
2014-7-13,92.0,81.4,72.4,74.9,71.7,69.2,94,74,53,30.10,29.88,9,2,17,0.08
2014-7-14,92.5,79.1,72.7,76.4,73.6,70.5,96,85,59,29.94,29.77,7,1,30,0.69
2014-7-15,89.2,76.9,70.4,75.8,72.5,68.4,97,87,64,29.81,29.70,5,1,12,0.90
2014-7-16,80.2,73.4,67.3,70.1,61.3,56.6,97,68,47,29.91,29.75,7,2,14,0.00
2014-7-17,80.6,72.8,64.5,59.7,57.3,54.9,74,59,46,30.11,29.91,6,1,12,0.00
2014-7-18,85.5,74.2,62.2,60.6,57.5,55.0,82,58,39,30.22,30.11,7,1,8,0.00
2014-7-19,81.9,74.9,68.8,63.8,60.6,57.1,78,62,44,30.18,30.11,7,1,11,0.00
2014-7-20,82.9,74.7,69.1,69.2,66.8,63.0,90,78,57,30.11,30.05,2,0,7,0.00
2014-7-21,83.8,76.4,70.0,69.9,67.9,65.2,88,76,62,30.17,30.09,5,1,10,0.00
2014-7-22,86.6,78.3,71.2,72.2,70.2,68.1,93,78,59,30.17,30.05,8,1,12,0.00
2014-7-23,92.6,81.7,72.6,76.1,72.1,69.3,93,74,54,30.05,29.77,7,2,14,0.05
2014-7-24,79.5,74.6,67.8,71.9,66.4,59.9,95,77,61,29.92,29.82,4,1,10,0.03
2014-7-25,85.5,73.1,61.4,61.2,57.5,54.2,82,60,39,30.06,29.93,5,1,13,0.00
2014-7-26,88.3,77.9,69.7,72.3,64.6,58.9,85,66,38,29.99,29.86,5,2,11,0.00
2014-7-27,84.0,77.3,70.0,73.2,70.8,67.2,91,81,67,29.86,29.61,10,3,16,0.08
2014-7-28,82.0,76.8,69.9,73.1,64.5,59.2,94,68,47,29.80,29.56,18,4,22,0.00
2014-7-29,74.5,68.0,62.1,60.1,53.6,49.0,79,61,44,30.00,29.80,10,2,17,0.00
2014-7-30,79.6,69.7,58.6,58.2,53.8,51.0,76,58,41,30.07,30.00,7,1,11,0.00
2014-7-31,86.4,75.1,61.8,66.3,61.2,57.8,93,65,39,30.10,30.04,8,2,14,0.00
2014-8-1,78.5,74.0,67.5,69.2,65.9,61.4,89,77,56,30.18,30.10,6,1,9,0.00
2014-8-2,79.4,71.3,63.8,67.8,65.2,61.8,95,82,66,30.15,30.05,3,1,8,0.09
2014-8-3,83.9,74.6,67.1,70.2,68.2,64.8,100,82,58,30.07,29.98,6,1,12,1.19
2014-8-4,87.8,75.0,65.4,68.6,66.7,64.2,97,78,49,30.09,30.02,3,1,10,0.00
2014-8-5,89.5,78.7,65.7,71.1,66.5,60.2,96,70,39,30.05,29.92,3,1,8,0.00
2014-8-6,82.7,74.1,64.7,68.7,65.8,63.5,96,77,56,29.95,29.88,4,1,12,0.02
2014-8-7,83.7,75.2,68.5,68.3,62.1,55.2,92,67,38,30.02,29.91,6,1,11,0.00
2014-8-8,83.4,74.2,63.8,62.1,58.9,54.5,84,61,41,30.12,30.03,4,1,8,0.00
2014-8-9,86.6,74.4,64.5,68.3,65.0,61.0,89,74,53,30.10,30.05,7,1,12,0.00
2014-8-10,86.3,77.1,66.3,68.1,65.1,62.9,93,68,49,30.12,30.04,6,1,10,0.00
2014-8-11,82.0,72.7,62.1,66.6,63.8,60.3,96,75,56,30.10,30.00,11,1,13,0.06
2014-8-12,75.6,71.3,68.9,73.4,69.7,67.0,98,95,89,29.99,29.74,7,1,15,3.01
2014-8-13,81.6,75.2,69.1,72.0,64.2,56.3,98,71,51,29.89,29.72,11,2,20,0.00
2014-8-14,82.1,72.0,62.0,60.1,55.9,52.1,78,58,40,29.94,29.83,9,2,18,0.00
2014-8-15,80.0,70.0,59.5,57.3,51.6,47.7,69,54,34,30.01,29.92,6,1,17,0.00
2014-8-16,82.2,72.8,60.7,60.5,54.9,51.3,79,56,37,30.02,29.92,6,1,11,0.00
2014-8-17,85.4,76.9,69.9,70.8,65.7,59.1,79,69,55,29.92,29.84,7,1,14,0.00
2014-8-18,83.1,75.6,67.5,67.5,64.8,62.0,86,70,57,29.91,29.78,5,1,9,0.00
2014-8-19,84.4,76.0,70.7,71.0,68.2,66.2,89,78,60,29.89,29.78,6,1,11,0.00
2014-8-20,86.6,74.1,67.0,68.6,66.4,63.3,95,79,48,29.99,29.89,9,1,14,0.26
2014-8-21,89.5,74.8,65.0,73.1,69.2,64.5,100,85,54,30.03,29.96,5,1,11,0.04
2014-8-22,82.1,75.9,72.1,72.6,69.7,66.6,89,81,69,29.98,29.92,5,1,10,0.00
2014-8-23,73.2,70.0,67.6,69.7,66.7,64.9,96,90,85,30.07,29.95,4,1,10,0.30
2014-8-24,80.2,71.5,65.1,64.9,62.2,58.5,92,74,49,30.13,30.06,7,1,12,0.00
2014-8-25,82.9,71.9,60.8,63.0,60.5,57.7,95,70,43,30.17,30.11,6,1,10,0.00
2014-8-26,88.2,75.1,63.5,65.2,62.6,58.2,89,67,43,30.16,30.06,4,1,9,0.00
2014-8-27,90.6,77.3,62.7,68.9,65.8,61.2,96,71,45,30.07,29.89,4,1,11,0.00
2014-8-28,83.4,77.3,69.0,70.7,63.8,55.3,84,65,44,30.06,29.86,6,2,14,0.00
2014-8-29,83.8,70.9,58.9,60.5,55.5,52.3,79,60,41,30.19,30.06,3,1,9,0.00
2014-8-30,84.6,74.7,67.2,72.0,66.9,61.9,89,77,65,30.21,30.08,5,1,12,0.00
2014-8-31,91.3,79.4,73.0,75.2,72.5,70.4,96,82,53,30.11,29.95,8,2,19,0.37
2014-9-1,91.2,79.7,73.1,78.6,73.8,71.8,97,84,58,30.01,29.92,4,1,17,0.37
2014-9-2,93.5,82.4,75.2,74.8,72.2,69.3,96,74,51,29.95,29.82,6,2,16,0.24
2014-9-3,86.9,78.0,71.8,74.3,69.8,66.0,95,78,53,30.10,29.88,2,0,6,0.00
2014-9-4,88.8,78.0,67.7,73.3,69.1,63.1,92,76,56,30.15,30.06,6,1,12,0.00
2014-9-5,90.9,81.5,71.5,75.3,72.8,69.3,96,77,57,30.14,29.99,6,1,10,0.00
2014-9-6,91.9,80.9,72.0,75.2,72.5,68.8,95,77,54,30.00,29.83,9,2,18,0.17
2014-9-7,79.8,72.3,65.9,70.7,59.9,52.3,95,67,39,30.15,29.95,7,1,13,0.00
2014-9-8,73.3,69.5,66.4,65.6,60.6,56.3,83,74,63,30.22,30.14,4,1,17,0.00
2014-9-9,76.6,70.4,66.3,67.6,64.1,61.3,86,81,73,30.18,30.07,4,1,9,0.00
2014-9-10,80.8,72.7,67.9,66.7,64.8,63.3,87,77,62,30.11,29.97,7,1,15,0.00
2014-9-11,87.9,77.4,68.5,72.9,69.0,64.7,93,77,59,29.98,29.83,8,2,15,0.00
2014-9-12,76.2,69.9,63.1,66.7,58.7,55.8,80,68,55,30.12,29.96,7,2,14,0.00
2014-9-13,68.9,65.1,61.3,63.9,58.7,55.3,94,80,71,30.20,30.08,5,1,13,0.14
2014-9-14,70.0,61.1,53.3,56.1,50.9,48.2,87,71,51,30.31,30.19,3,1,10,0.00
2014-9-15,76.0,64.7,53.8,59.5,54.8,51.5,93,73,47,30.23,30.04,6,1,10,0.00
2014-9-16,76.6,68.1,61.6,61.8,57.4,53.5,93,71,47,30.02,29.96,6,1,17,0.00
2014-9-17,78.6,65.5,55.8,56.4,53.0,51.3,85,66,41,30.04,29.94,3,0,7,0.00
2014-9-18,78.0,66.8,58.3,61.8,57.2,52.2,92,73,45,30.08,29.94,7,1,12,0.00
2014-9-19,75.7,65.9,58.2,60.8,57.2,52.4,95,75,50,30.28,30.09,5,1,12,0.00
2014-9-20,81.5,69.9,60.6,64.0,60.7,57.5,97,75,50,30.26,30.02,5,1,10,0.00
2014-9-21,86.3,72.1,59.7,68.1,62.5,58.5,96,75,46,30.03,29.62,10,1,14,0.07
2014-9-22,74.6,66.5,57.2,57.3,49.6,46.1,69,55,43,30.21,29.72,11,3,21,0.00
2014-9-23,72.9,60.2,50.1,50.1,46.2,42.4,77,62,40,30.36,30.21,3,1,8,0.00
2014-9-24,69.0,61.1,52.6,60.0,55.1,49.7,90,81,69,30.44,30.34,7,2,14,0.04
2014-9-25,65.0,61.9,59.0,63.2,60.0,57.5,96,94,85,30.33,30.20,6,2,13,0.42
2014-9-26,76.4,66.2,59.3,60.9,57.6,54.5,96,76,47,30.24,30.16,4,1,11,0.00
2014-9-27,83.7,68.6,56.3,60.6,56.8,54.2,93,69,40,30.23,30.15,6,1,8,0.00
2014-9-28,82.0,69.0,57.0,63.0,59.2,55.8,96,73,48,30.18,30.03,4,0,8,0.00
2014-9-29,71.2,66.8,63.2,64.7,62.5,60.2,94,86,75,30.03,29.91,5,0,7,0.00
2014-9-30,78.6,68.7,65.0,64.4,63.3,62.1,95,84,60,29.92,29.83,7,1,9,0.00
2014-10-1,74.2,66.6,61.3,63.6,62.0,59.5,95,86,68,30.04,29.91,3,0,7,0.00
2014-10-2,75.3,65.2,58.3,62.7,59.6,57.1,96,83,63,30.12,30.04,3,0,11,0.00
2014-10-3,69.7,65.3,60.5,64.7,61.3,57.5,96,87,82,30.10,29.71,7,1,15,0.07
2014-10-4,67.8,62.2,48.7,66.0,51.1,31.8,96,70,40,29.81,29.58,7,2,18,0.07
2014-10-5,62.9,51.0,39.8,42.9,37.7,33.6,88,63,39,29.95,29.81,9,1,17,0.00
2014-10-6,74.9,60.3,45.5,50.4,46.1,40.6,92,62,40,30.01,29.91,8,2,18,0.00
2014-10-7,72.3,64.0,60.0,59.8,55.0,49.1,94,73,56,30.03,29.86,9,3,19,0.27
2014-10-8,76.6,66.3,58.1,58.5,53.1,45.6,94,66,38,30.00,29.83,9,3,18,0.00
2014-10-9,71.1,62.6,52.9,52.6,46.6,40.3,77,57,38,30.11,29.99,7,1,15,0.00
2014-10-10,61.8,58.7,53.9,53.5,51.0,48.1,93,76,66,30.11,30.04,3,1,11,0.08
2014-10-11,58.1,53.5,51.5,54.5,51.7,50.1,96,94,88,30.16,29.97,3,1,10,0.19
2014-10-12,62.8,55.8,48.3,51.4,48.4,45.0,96,78,59,30.28,30.15,2,0,10,0.00
2014-10-13,64.7,60.9,57.3,63.8,58.2,51.7,97,91,78,30.27,30.17,3,0,5,0.11
2014-10-14,79.0,71.1,64.9,69.1,66.8,64.0,98,87,71,30.17,29.94,9,2,18,0.00
2014-10-15,76.7,69.2,60.1,70.7,66.6,58.9,97,92,82,29.94,29.74,8,2,18,1.71
2014-10-16,65.5,59.6,57.3,59.5,57.4,56.1,97,93,78,29.74,29.70,3,1,10,0.03
2014-10-17,73.2,63.3,53.0,56.6,54.3,51.8,96,75,51,29.81,29.67,8,2,15,0.00
2014-10-18,70.0,60.2,52.4,54.6,48.4,41.3,90,67,43,29.86,29.60,8,2,21,0.00
2014-10-19,59.4,52.8,47.1,42.8,37.3,32.4,70,57,39,30.10,29.84,11,3,20,0.00
2014-10-20,67.6,53.9,40.3,49.9,43.6,37.1,92,70,50,30.11,29.92,8,1,18,0.00
2014-10-21,69.5,58.2,50.5,53.6,50.4,48.1,95,77,51,29.92,29.78,3,1,12,0.35
2014-10-22,54.4,52.5,51.4,51.4,49.7,44.5,95,91,75,29.93,29.84,9,2,16,0.28
2014-10-23,63.2,56.9,50.6,48.6,45.4,43.2,77,66,53,29.91,29.83,11,3,23,0.00
2014-10-24,68.8,59.1,53.1,45.2,42.6,37.8,73,56,37,29.97,29.87,8,2,19,0.00
2014-10-25,71.8,60.6,47.9,47.5,43.3,39.5,82,54,37,29.94,29.70,5,2,15,0.00
2014-10-26,70.1,61.3,49.9,47.5,37.8,30.0,74,44,23,29.91,29.66,12,3,23,0.00
2014-10-27,71.4,57.4,42.4,43.3,37.1,31.3,81,49,27,30.08,29.91,5,1,11,0.00
2014-10-28,81.1,67.3,55.5,59.2,51.6,42.3,74,58,45,30.02,29.90,12,2,14,0.00
2014-10-29,69.6,59.9,50.4,59.8,53.8,47.8,95,81,58,29.97,29.87,8,1,18,0.03
2014-10-30,60.5,53.0,48.0,47.9,41.6,38.3,90,67,45,30.06,29.97,5,2,14,0.00
2014-10-31,57.1,48.4,41.7,42.5,38.1,36.0,89,69,50,30.02,29.82,3,0,8,0.00
2014-11-1,50.7,48.0,45.8,43.1,38.8,34.0,81,71,61,29.89,29.74,15,3,19,0.00
2014-11-2,50.3,45.0,41.7,32.5,27.4,22.4,65,51,35,30.21,29.88,14,4,26,0.00
2014-11-3,62.7,50.6,41.1,29.4,24.5,18.2,54,38,19,30.31,30.20,7,2,16,0.00
2014-11-4,71.0,56.5,44.5,43.4,38.0,31.0,71,52,28,30.21,30.05,5,1,13,0.00
2014-11-5,67.1,58.9,54.1,53.5,44.5,36.9,93,61,43,30.17,30.06,3,1,10,0.02
2014-11-6,66.9,56.3,52.2,57.0,51.5,42.7,96,85,61,30.11,29.64,6,1,13,0.25
2014-11-7,53.9,49.2,40.3,42.5,34.9,25.6,76,58,41,30.06,29.69,12,5,24,0.00
2014-11-8,53.3,43.2,32.4,36.0,29.1,24.0,81,58,41,30.07,29.90,9,2,14,0.00
2014-11-9,59.0,48.5,41.6,40.1,37.1,35.1,87,66,45,30.03,29.89,6,1,9,0.00
2014-11-10,65.1,50.5,39.4,44.2,40.6,36.7,96,71,43,30.15,30.02,6,1,12,0.00
2014-11-11,71.4,56.0,41.5,60.8,50.5,39.9,96,83,60,30.08,29.87,5,0,11,0.00
2014-11-12,63.8,57.2,42.5,60.8,46.3,30.8,96,70,40,30.11,29.84,12,3,18,0.00
2014-11-13,44.8,40.2,36.0,34.4,30.3,28.4,91,68,54,30.15,30.04,6,2,12,0.04
2014-11-14,41.4,36.2,32.0,33.9,22.5,15.9,87,59,40,30.28,30.06,12,3,19,0.00
2014-11-15,43.9,34.5,29.5,24.5,20.6,18.1,76,58,38,30.42,30.28,7,2,15,0.00
2014-11-16,45.1,39.8,33.3,39.0,28.9,23.4,91,66,45,30.36,30.03,7,1,12,0.05
2014-11-17,48.3,43.1,39.0,46.4,38.8,26.7,96,85,61,30.02,29.54,16,2,27,0.81
2014-11-18,38.4,29.0,23.5,25.3,8.9,2.4,59,43,31,30.25,29.76,12,5,28,0.00